Simultaneous Nadir Overpasses (SNOs) Predictions

Prediction of SNOs between METOP-A and NOAA-19 Satellite Orbit:

Table of predicted SNOs for the next 14.0 days since TLE Epoch: 11/2/2013
Index Date (METOP-A) Time (METOP-A) Lat,Lon (METOP-A) SZA (METOP-A ) Date (NOAA-19) Time (NOAA-19) Lat,Lon (NOAA-19) SZA (NOAA-19 ) Distance(km) Time Diff (sec)
1 11/06/2013 13:49:43 74.32, -32.25 90.36 11/06/2013 13:48:37 74.31, -35.26 90.39 90.70 66
2 11/06/2013 14:40:38 -73.68, 133.52 90.26 11/06/2013 14:39:29 -73.67, 133.60 90.27 2.68 69
3 11/06/2013 15:31:18 73.65, -59.21 89.73 11/06/2013 15:30:28 73.67, -59.15 89.75 2.84 50
4 11/06/2013 16:22:00 -73.66, 108.13 90.26 11/06/2013 16:21:33 -73.66, 108.11 90.26 0.51 27
5 11/06/2013 17:12:40 73.63, -84.60 89.72 11/06/2013 17:12:32 73.66, -84.63 89.75 3.26 8
6
